GSAT0207 (GALILEO 15) (41859 NORAD) Tracking and Keplerian Element Data

This shows tracking and keplerian element data for the satellite.

Feedback or suggestion? Click here.




ElementValue
Catalog41859
NameGSAT0207 (GALILEO 15)
Epoch Orbit1231
Epoch Day314.61781431
Epoch Year2018
RAAN178.101
Inclination54.5846
Eccentricity0.0003038
Argument of Perigee307.2483
Mean Anonmoly52.8241
Mean Motion1.70473213
Decay Rate3.6E-07
L11 41859U 16069A 18314.61781431 .00000036 00000-0 00000+0 0 9995
L22 41859 54.5846 178.1010 0003038 307.2483 52.8241 1.70473213 12317

Live tracking and technical data element details for GSAT0207 (GALILEO 15) (NORAD 41859). GSAT0207 (GALILEO 15) can be tracked NOW for your location showing map with azimuth and elevation plus other details from your city location.

Track the satellite on the map from your city or location and see movement details for azimuth, elevation, latitude, longitude, range, height, and movement on the map or in text.







IsCatalogInMostPopularTable: catalog: 41859, numindb: 130
Update: records affected: 1



GetName: 41859 GSAT0207 (GALILEO 15)

Hit Count: updated at: Mon, 12 Nov 2018 21:50:29 GMT